Location: Unspecified
(0.0000°N, 0.0000°E)
Time: 23:46:13
(UTC+02:00)

ARIANE 5 R/B - Visible Passes

Search period start: 31 August 2015 00:00
Search period end: 10 September 2015 00:00
Orbit: 668 x 38434 km, 6.7° (Epoch: 29 August)

Date Brightness Start Highest point End Pass type
(mag) Time Alt. Az. Time Alt. Az. Time Alt. Az.
31 Aug 4.0 16:49:30 10° W 16:53:14 79° N 17:00:46 10° E visible
01 Sep 4.0 15:51:15 10° W 15:55:29 87° SSE 16:00:10 10° E visible
01 Sep 4.0 15:51:15 10° W 15:55:28 87° S 16:00:10 10° E visible
02 Sep 4.3 04:45:14 10° W 14:57:44 73° S 15:01:29 10° E visible
03 Sep 4.9 03:24:54 10° W 13:59:49 67° S 14:03:44 10° E visible
04 Sep 5.7 02:16:54 10° W 13:01:35 66° S 13:06:21 10° E visible
05 Sep 6.3 01:13:34 10° W 12:02:46 69° S 12:09:06 10° E visible
06 Sep 6.9 00:12:39 10° W 11:02:59 72° S 11:11:48 10° E visible
06 Sep 8.0 23:13:08 10° W 00:08:02 83° N 10:14:20 10° E visible
07 Sep 8.2 22:14:31 10° W 22:41:28 79° N 09:16:34 10° E visible
08 Sep 7.4 21:16:30 10° W 21:32:59 76° N 08:18:21 10° E visible
